OpenBCM V1.07b12 (Linux)

Packet Radio Mailbox

DB0FHN

[JN59NK Nuernberg]

 Login: GUEST





  
W4DPH  > KEPS     08.02.03 03:26l 207 Lines 5452 Bytes #999 (0) @ AMSAT
BID : ORB03037.W
Read: DB0FHN GUEST
Subj: Orbital Elements  03037.WEATHER
Path: DB0FHN<DB0RGB<DB0MRW<DB0ERF<DK0MNL<DB0FBB<DB0GOS<ON0AR<ON0AR<7M3TJZ<
      WB0TAX<W4DPH
Sent: 030208/0117Z @:W4DPH.#TPA.FL.USA.NOAM #:45799 [CLW] FBB $:ORB03037.W
From: W4DPH@W4DPH.#TPA.FL.USA.NOAM
To  : KEPS@AMSAT


HR AMSAT ORBITAL ELEMENTS FOR WEATHER SATELLITES
FROM WA5QGD FORT WORTH,TX February 6, 2003
SEND SUBSCRIBE/UNSUBSCRIBE TO majordomo@amsat.org ONLY
BID: ORB03037.W
TO ALL RADIO AMATEURS BT

Satellite: NOAA-10
Catalog number: 16969
Epoch time:      03037.90947368
Element set:     653
Inclination:       98.7279 deg
RA of node:        32.0439 deg
Eccentricity:    0.0013270
Arg of perigee:   119.1041 deg
Mean anomaly:     241.1470 deg
Mean motion:   14.27058962 rev/day
Decay rate:       1.55e-06 rev/day^2
Epoch rev:           85224
Checksum:              303

Satellite: NOAA-11
Catalog number: 19531
Epoch time:      03037.91134398
Element set:     491
Inclination:       98.9027 deg
RA of node:       119.3320 deg
Eccentricity:    0.0011029
Arg of perigee:   233.6283 deg
Mean anomaly:     126.3872 deg
Mean motion:   14.14531825 rev/day
Decay rate:       2.03e-06 rev/day^2
Epoch rev:           74115
Checksum:              276

Satellite: NOAA-12
Catalog number: 21263
Epoch time:      03037.89878594
Element set:     960
Inclination:       98.6244 deg
RA of node:        27.7241 deg
Eccentricity:    0.0013720
Arg of perigee:    56.9584 deg
Mean anomaly:     303.2911 deg
Mean motion:   14.25071784 rev/day
Decay rate:       2.95e-06 rev/day^2
Epoch rev:           60955
Checksum:              318

Satellite: MET-3/5
Catalog number: 21655
Epoch time:      03037.21487557
Element set:     497
Inclination:       82.5534 deg
RA of node:        47.5907 deg
Eccentricity:    0.0012429
Arg of perigee:   227.7415 deg
Mean anomaly:     132.2655 deg
Mean motion:   13.16979587 rev/day
Decay rate:        5.1e-07 rev/day^2
Epoch rev:           55185
Checksum:              325

Satellite: MET-2/21
Catalog number: 22782
Epoch time:      03036.80638563
Element set:     510
Inclination:       82.5450 deg
RA of node:       225.0168 deg
Eccentricity:    0.0022836
Arg of perigee:    25.2925 deg
Mean anomaly:     334.9328 deg
Mean motion:   13.83531396 rev/day
Decay rate:       1.01e-06 rev/day^2
Epoch rev:           47632
Checksum:              285

Satellite: OKEAN-4
Catalog number: 23317
Epoch time:      03036.20288724
Element set:     180
Inclination:       82.5425 deg
RA of node:       341.3541 deg
Eccentricity:    0.0024652
Arg of perigee:    93.6990 deg
Mean anomaly:     266.7046 deg
Mean motion:   14.80869992 rev/day
Decay rate:      1.395e-05 rev/day^2
Epoch rev:           44812
Checksum:              309

Satellite: NOAA-14
Catalog number: 23455
Epoch time:      03037.93445383
Element set:     514
Inclination:       99.1869 deg
RA of node:        56.1957 deg
Eccentricity:    0.0008595
Arg of perigee:   261.6026 deg
Mean anomaly:      98.4171 deg
Mean motion:   14.13292765 rev/day
Decay rate:       1.55e-06 rev/day^2
Epoch rev:           41783
Checksum:              325

Satellite: SICH-1
Catalog number: 23657
Epoch time:      03037.88873752
Element set:     983
Inclination:       82.5306 deg
RA of node:       120.5660 deg
Eccentricity:    0.0026332
Arg of perigee:    71.4722 deg
Mean anomaly:     288.9348 deg
Mean motion:   14.79929864 rev/day
Decay rate:      1.446e-05 rev/day^2
Epoch rev:           40050
Checksum:              322

Satellite: NOAA-15
Catalog number: 25338
Epoch time:      03037.93632269
Element set:     997
Inclination:       98.5499 deg
RA of node:        60.4009 deg
Eccentricity:    0.0010675
Arg of perigee:   356.2922 deg
Mean anomaly:       3.8176 deg
Mean motion:   14.24238946 rev/day
Decay rate:       1.89e-06 rev/day^2
Epoch rev:           24614
Checksum:              329

Satellite: RESURS
Catalog number: 25394
Epoch time:      03037.40881990
Element set:     441
Inclination:       98.6350 deg
RA of node:       115.5623 deg
Eccentricity:    0.0002046
Arg of perigee:   123.3446 deg
Mean anomaly:     236.7930 deg
Mean motion:   14.23872739 rev/day
Decay rate:       1.26e-06 rev/day^2
Epoch rev:           23780
Checksum:              287

Satellite: FENGYUN1
Catalog number: 25730
Epoch time:      03037.39181246
Element set:     760
Inclination:       98.6348 deg
RA of node:        62.2486 deg
Eccentricity:    0.0015075
Arg of perigee:    39.8353 deg
Mean anomaly:     320.3924 deg
Mean motion:   14.11732880 rev/day
Decay rate:        7.0e-07 rev/day^2
Epoch rev:           19291
Checksum:              290

Satellite: OKEAN-0
Catalog number: 25860
Epoch time:      03036.52140309
Element set:     995
Inclination:       97.8663 deg
RA of node:        84.4786 deg
Eccentricity:    0.0002043
Arg of perigee:    95.3344 deg
Mean anomaly:     264.8098 deg
Mean motion:   14.72586581 rev/day
Decay rate:       6.52e-06 rev/day^2
Epoch rev:           19101
Checksum:              312

Satellite: NOAA-16
Catalog number: 26536
Epoch time:      03037.81815439
Element set:     198
Inclination:       98.9017 deg
RA of node:       346.1891 deg
Eccentricity:    0.0009986
Arg of perigee:   343.4959 deg
Mean anomaly:      16.5876 deg
Mean motion:   14.11898191 rev/day
Decay rate:       2.82e-06 rev/day^2
Epoch rev:           12249
Checksum:              350

Satellite: NOAA-17
Catalog number: 27453
Epoch time:      03037.89593266
Element set:     295
Inclination:       98.7602 deg
RA of node:       109.1685 deg
Eccentricity:    0.0012437
Arg of perigee:    33.8535 deg
Mean anomaly:     326.3432 deg
Mean motion:   14.23285612 rev/day
Decay rate:       2.55e-06 rev/day^2
Epoch rev:            3230
Checksum:              299



Read previous mail | Read next mail


 15.09.2025 23:10:58lGo back Go up